Albert Lea, MN

12:10 AM CDT on September 22, 2017 (GMT -0500)
Albert Lea Municipal

Weather History for KAEL - April, 2014

Change the Weather History Date:

Thursday, April 24, 2014

  Actual Average Record
Temperature  
Mean Temperature 44 °F -  
Max Temperature 48 °F 59 °F 77 °F (1998)
Min Temperature 39 °F 38 °F 26 °F (2013)
Degree Days  
Heating Degree Days 22    
Moisture  
Dew Point 42 °F    
Average Humidity 94    
Maximum Humidity 100    
Minimum Humidity 76    
Precipitation  
Precipitation 0.27 in - - ()
Sea Level Pressure  
Sea Level Pressure 29.72 in    
Wind  
Wind Speed 14 mph (SSE)    
Max Wind Speed 22 mph    
Max Gust Speed 32 mph    
Visibility 7 miles    
Events Fog , Rain , Thunderstorm    
Averages and records for this station are not official NWS values.
T = Trace of Precipitation, MM = Missing Value Source: NWS Daily Summary

Daily Weather History Graph

Daily Weather History Graph

Search for Another Location

Airport or City:

Trip Planner

Search our weather history database for the weather conditions in past years. The results will help you decide how hot, cold, wet, or windy it might be!

Date:

Astronomy

Apr. 24, 2014 Rise Set
Actual Time 6:16 AM CDT 8:07 PM CDT
Civil Twilight 5:45 AM CDT 8:38 PM CDT
Nautical Twilight 5:07 AM CDT 9:16 PM CDT
Astronomical Twilight 4:27 AM CDT 9:57 PM CDT
Moon 3:37 AM CDT (4/24) 3:15 PM CDT (4/24)
Length of Visible Light 14h 53m
Length of Day
13h 51m
Waning Crescent, 24% of the Moon is Illuminated
Apr 24
Waning Crescent
Apr 29
New
May 6
First Quarter
May 14
Full
May 21
Last Quarter

Hourly Weather History & Observations

Time (CDT) Temp. Windchill Dew Point Humidity Pressure Visibility Wind Dir Wind Speed Gust Speed Precip Events Conditions
12:09 AM 44.6 °F 37.4 °F 37.4 °F 76% 29.86 in 10.0 mi SE 16.1 mph 24.2 mph N/A   Mostly Cloudy
12:29 AM 44.6 °F 36.4 °F 37.4 °F 76% 29.85 in 10.0 mi SE 20.7 mph 26.5 mph N/A   Overcast
12:48 AM 42.8 °F 33.8 °F 39.2 °F 87% 29.85 in 7.0 mi SE 21.9 mph 32.2 mph N/A Rain Rain
1:09 AM 42.8 °F 34.3 °F 41.0 °F 93% 29.85 in 7.0 mi SE 19.6 mph 28.8 mph 0.04 in Rain Rain
1:29 AM 42.8 °F 34.3 °F 42.8 °F 100% 29.84 in 4.0 mi SE 19.6 mph 27.6 mph 0.09 in Rain Rain
1:48 AM 42.8 °F 34.3 °F 42.8 °F 100% 29.82 in 5.0 mi SE 19.6 mph 28.8 mph N/A Rain Light Rain
2:09 AM 42.8 °F 34.8 °F 42.8 °F 100% 29.81 in 5.0 mi SE 17.3 mph 27.6 mph 0.01 in   Overcast
2:29 AM 42.8 °F 34.5 °F 42.8 °F 100% 29.81 in 5.0 mi SE 18.4 mph 25.3 mph 0.01 in Rain Light Rain
2:48 AM 42.8 °F 35.1 °F 42.8 °F 100% 29.79 in 5.0 mi SE 16.1 mph 28.8 mph N/A Thunderstorm Drizzle
3:09 AM 42.8 °F 34.8 °F 42.8 °F 100% 29.78 in 5.0 mi SE 17.3 mph 25.3 mph N/A Rain Light Rain
3:29 AM 42.8 °F 34.8 °F 42.8 °F 100% 29.79 in 7.0 mi SE 17.3 mph - 0.01 in Rain , Thunderstorm Light Thunderstorms and Rain
3:48 AM 42.8 °F 34.8 °F 42.8 °F 100% 29.81 in 5.0 mi SE 17.3 mph 25.3 mph N/A Rain , Thunderstorm Thunderstorms and Rain
4:09 AM 42.8 °F 34.8 °F 42.8 °F 100% 29.79 in 4.0 mi SE 17.3 mph 21.9 mph 0.07 in Rain , Thunderstorm Thunderstorms and Rain
4:29 AM 42.8 °F 34.3 °F 42.8 °F 100% 29.77 in 4.0 mi SE 19.6 mph 25.3 mph 0.10 in Rain , Thunderstorm Thunderstorms and Rain
4:48 AM 42.8 °F 34.3 °F 42.8 °F 100% 29.77 in 5.0 mi SE 19.6 mph 32.2 mph N/A Rain , Thunderstorm Light Thunderstorms and Rain
5:29 AM 42.8 °F 34.5 °F 41.0 °F 93% 29.75 in 5.0 mi SE 18.4 mph 24.2 mph 0.03 in Rain , Thunderstorm Light Thunderstorms and Rain
5:48 AM 41.0 °F 32.5 °F 41.0 °F 100% 29.76 in 5.0 mi SE 17.3 mph 26.5 mph N/A Rain Light Rain
6:09 AM 41.0 °F 31.6 °F 41.0 °F 100% 29.75 in 5.0 mi SE 20.7 mph 27.6 mph 0.02 in Rain , Thunderstorm Light Thunderstorms and Rain
6:29 AM 41.0 °F 31.9 °F 41.0 °F 100% 29.75 in 5.0 mi SE 19.6 mph 24.2 mph 0.03 in Rain Rain
6:48 AM 41.0 °F 31.9 °F 41.0 °F 100% 29.73 in 7.0 mi SE 19.6 mph 26.5 mph N/A   Drizzle
7:09 AM 41.0 °F 31.6 °F 39.2 °F 93% 29.72 in 7.0 mi SE 20.7 mph 27.6 mph N/A Rain Rain
7:29 AM 41.0 °F 31.6 °F 41.0 °F 100% 29.72 in 10.0 mi SE 20.7 mph 29.9 mph N/A   Overcast
7:48 AM 41.0 °F 31.9 °F 41.0 °F 100% 29.72 in 10.0 mi SE 19.6 mph 29.9 mph N/A   Overcast
8:09 AM 39.2 °F 29.6 °F 39.2 °F 100% 29.71 in 10.0 mi SE 19.6 mph 27.6 mph N/A   Light Drizzle
8:29 AM 39.2 °F 29.3 °F 39.2 °F 100% 29.70 in 10.0 mi SE 20.7 mph 28.8 mph N/A   Overcast
8:48 AM 39.2 °F 29.6 °F 39.2 °F 100% 29.70 in 10.0 mi SE 19.6 mph 28.8 mph N/A   Overcast
9:09 AM 39.2 °F 30.2 °F 39.2 °F 100% 29.70 in 10.0 mi SE 17.3 mph - N/A   Overcast
9:28 AM 41.0 °F 32.8 °F 41.0 °F 100% 29.69 in 3.0 mi SE 16.1 mph 25.3 mph N/A   Light Drizzle
9:49 AM 41.0 °F 33.9 °F 41.0 °F 100% 29.68 in 7.0 mi SE 12.7 mph 24.2 mph N/A   Overcast
10:08 AM 41.0 °F 32.8 °F 41.0 °F 100% 29.66 in 7.0 mi ESE 16.1 mph 23.0 mph N/A   Light Drizzle
10:29 AM 41.0 °F 33.9 °F 41.0 °F 100% 29.66 in 5.0 mi SE 12.7 mph - N/A Rain Light Rain
10:49 AM 41.0 °F 33.5 °F 41.0 °F 100% 29.68 in 7.0 mi SE 13.8 mph 20.7 mph N/A   Drizzle
11:08 AM 42.8 °F 35.8 °F 41.0 °F 93% 29.68 in 7.0 mi SE 13.8 mph - N/A   Overcast
11:29 AM 42.8 °F 37.5 °F 42.8 °F 100% 29.67 in 7.0 mi SE 9.2 mph - N/A   Light Drizzle
11:48 AM 42.8 °F 38.6 °F 42.8 °F 100% 29.67 in 5.0 mi SE 6.9 mph - N/A   Overcast
12:09 PM 42.8 °F 39.3 °F 42.8 °F 100% 29.67 in 5.0 mi SSE 5.8 mph - N/A   Overcast
12:29 PM 42.8 °F 39.3 °F 42.8 °F 100% 29.67 in 1.5 mi SSE 5.8 mph - N/A   Drizzle
12:48 PM 44.6 °F 42.2 °F 42.8 °F 93% 29.67 in 1.2 mi SSE 4.6 mph - N/A   Drizzle
1:09 PM 44.6 °F 42.2 °F 44.6 °F 100% 29.66 in 1.8 mi South 4.6 mph - N/A   Overcast
1:49 PM 44.6 °F 43.1 °F 44.6 °F 100% 29.66 in 3.0 mi SW 3.5 mph - N/A   Overcast
2:09 PM 46.4 °F 44.3 °F 44.6 °F 93% 29.65 in 5.0 mi West 4.6 mph - N/A   Overcast
2:28 PM 46.4 °F 42.9 °F 44.6 °F 93% 29.66 in 5.0 mi West 6.9 mph - N/A   Overcast
2:49 PM 46.4 °F 41.9 °F 44.6 °F 93% 29.66 in 5.0 mi West 9.2 mph - N/A   Overcast
3:09 PM 46.4 °F 42.9 °F 44.6 °F 93% 29.65 in 7.0 mi NW 6.9 mph - N/A   Overcast
3:28 PM 48.2 °F - 44.6 °F 87% 29.64 in 7.0 mi North 3.5 mph - N/A   Mostly Cloudy
3:49 PM 48.2 °F - 44.6 °F 87% 29.68 in 10.0 mi WNW 6.9 mph - N/A   Mostly Cloudy
4:09 PM 48.2 °F - 44.6 °F 87% 29.66 in 7.0 mi WNW 11.5 mph 17.3 mph N/A   Overcast
4:28 PM 48.2 °F - 44.6 °F 87% 29.67 in 10.0 mi WNW 8.1 mph 16.1 mph N/A   Mostly Cloudy
4:49 PM 48.2 °F - 44.6 °F 87% 29.67 in 10.0 mi WNW 12.7 mph 17.3 mph N/A   Overcast
5:08 PM 48.2 °F - 42.8 °F 82% 29.69 in 10.0 mi WNW 10.4 mph 16.1 mph N/A   Mostly Cloudy
5:28 PM 48.2 °F - 42.8 °F 82% 29.69 in 10.0 mi NW 6.9 mph - N/A   Mostly Cloudy
5:49 PM 48.2 °F - 42.8 °F 82% 29.69 in 10.0 mi WNW 8.1 mph - N/A   Overcast
6:08 PM 48.2 °F - 42.8 °F 82% 29.69 in 10.0 mi NW 8.1 mph - N/A   Overcast
6:28 PM 48.2 °F - 42.8 °F 82% 29.69 in 10.0 mi NW 5.8 mph - N/A   Overcast
6:49 PM 48.2 °F - 42.8 °F 82% 29.69 in 10.0 mi NW 5.8 mph - N/A   Overcast
7:08 PM 48.2 °F - 42.8 °F 82% 29.69 in 10.0 mi WNW 9.2 mph - N/A   Overcast
7:29 PM 48.2 °F - 42.8 °F 82% 29.70 in 10.0 mi NW 5.8 mph - N/A   Mostly Cloudy
7:48 PM 46.4 °F 44.3 °F 42.8 °F 87% 29.71 in 10.0 mi NW 4.6 mph - N/A   Scattered Clouds
8:09 PM 46.4 °F - 42.8 °F 87% 29.71 in 10.0 mi Calm Calm - N/A   Clear
8:29 PM 46.4 °F - 42.8 °F 87% 29.72 in 10.0 mi Calm Calm - N/A   Clear
8:48 PM 44.6 °F - 42.8 °F 93% 29.72 in 10.0 mi Calm Calm - N/A   Clear
9:09 PM 44.6 °F 43.1 °F 42.8 °F 93% 29.73 in 10.0 mi WNW 3.5 mph - N/A   Clear
9:28 PM 44.6 °F - 42.8 °F 93% 29.74 in 10.0 mi Calm Calm - N/A   Clear
9:49 PM 42.8 °F 41.1 °F 41.0 °F 93% 29.75 in 7.0 mi WNW 3.5 mph - N/A   Clear
10:09 PM 42.8 °F 41.1 °F 42.8 °F 100% 29.75 in 7.0 mi WNW 3.5 mph - N/A   Clear
10:28 PM 44.6 °F - 42.8 °F 93% 29.75 in 7.0 mi Calm Calm - N/A   Scattered Clouds
10:49 PM 42.8 °F - 41.0 °F 93% 29.75 in 5.0 mi Calm Calm - N/A   Scattered Clouds
11:09 PM 41.0 °F - 39.2 °F 93% 29.74 in 2.5 mi Calm Calm - N/A   Clear
11:28 PM 39.2 °F - 39.2 °F 100% 29.75 in 2.0 mi Calm Calm - N/A   Clear
11:49 PM 39.2 °F 37.0 °F 39.2 °F 100% 29.75 in 0.5 mi SW 3.5 mph - N/A Fog Fog